Temperature
16 16 16 15 15 15 15 15 15 15 14 14 14 14 14 14 14 14 14 14 14 14 14 13 13 13 13 13 13 13 13 13 12 12 12 11 11 11 11 11 11 11 11
16 15 15 15 15 15 15 15 14 14 14 14 14 14 14 14 14 14 14 13 13 13 13 13 13 13 13 13 13 13 13 12 12 12 11 11 11 11 11 11 11 11 11
15 15 15 15 15 15 14 14 14 14 14 14 14 14 14 14 14 13 13 13 13 13 13 13 13 13 13 13 13 13 12 12 12 12 11 11 11 11 11 11 10 10 10
15 15 15 14 14 14 14 14 14 14 14 14 14 13 13 13 13 13 13 13 13 13 13 13 13 13 13 13 12 12 12 12 12 12 11 11 11 11 10 10 10 10 10
15 15 14 14 14 14 14 14 14 14 13 13 13 13 13 13 13 13 13 13 13 13 13 13 13 12 13 12 12 12 12 12 12 11 11 11 10 10 10 10 10 10 10
14 14 14 14 14 14 14 13 13 13 13 13 13 13 13 13 13 13 13 13 13 12 12 12 12 12 12 12 12 12 12 12 11 11 11 11 11 10 10 10 10 10 9
14 14 14 14 14 14 13 13 13 13 13 13 13 13 13 12 12 12 12 12 12 12 12 12 12 12 12 12 12 12 11 11 11 11 11 11 11 11 10 10 10 10 10
14 14 13 13 13 13 13 13 13 13 12 12 12 12 12 12 12 12 12 12 12 12 12 12 11 11 11 11 11 11 11 11 11 11 11 11 10 10 10 10 10 9 9
13 13 13 13 13 13 13 12 12 12 12 12 12 12 12 12 12 12 12 12 11 11 11 11 11 11 11 11 11 11 11 10 10 10 10 10 10 10 10 9 9 9 9
13 13 13 12 12 12 12 12 12 12 12 12 12 11 11 11 11 11 11 11 11 11 11 11 11 11 11 10 10 10 10 10 10 10 10 10 10 9 9 9 9 9 9
13 13 12 12 12 12 12 12 12 12 11 11 11 11 11 11 11 11 11 11 11 11 11 11 11 10 10 10 10 10 10 10 10 9 9 9 9 9 9 9 9 9 9
13 12 12 12 12 12 12 12 12 11 11 11 11 11 11 11 11 11 11 11 10 10 10 10 10 10 10 10 10 10 9 9 9 9 9 9 9 9 9 9 9 8 8
12 12 12 12 12 11 11 11 11 11 11 10 10 10 10 10 10 10 10 10 10 10 10 10 10 10 9 9 9 9 9 9 9 9 9 9 9 9 8 8 8 8 8
12 12 11 11 11 11 11 11 11 11 10 10 10 10 10 10 10 10 10 10 10 10 10 9 9 9 9 9 9 9 9 9 8 8 8 8 8 8 8 8 8 8 8
12 11 11 11 11 11 11 11 10 10 10 10 10 10 10 10 10 10 10 10 10 9 9 9 9 9 9 8 8 8 8 8 8 8 8 8 8 8 8 7 7 7 7
11 11 11 11 11 10 10 10 10 10 10 10 10 10 10 10 10 10 10 9 9 9 9 9 9 8 8 8 8 8 8 8 8 8 8 8 7 7 7 7 7 7 7
11 11 11 10 10 10 10 10 10 10 10 10 10 10 10 10 9 9 9 9 9 9 8 8 8 8 8 8 8 7 7 7 7 7 7 7 7 7 7 7 7 7 7
11 11 10 10 10 10 10 9 9 10 10 9 10 9 9 9 9 9 9 9 8 8 8 8 8 8 8 8 7 7 7 7 7 7 7 7 7 7 6 6 6 7 6
10 10 10 10 10 10 9 9 9 9 9 9 9 9 9 9 9 9 8 8 8 8 8 8 8 7 7 7 7 7 7 7 7 7 7 6 6 6 6 6 6 6 6
10 10 9 9 9 9 9 9 9 9 9 9 9 9 9 9 8 8 8 8 8 8 8 7 7 7 7 7 7 7 7 7 6 6 6 6 6 6 6 6 6 6 6
9 9 9 9 9 9 8 8 8 8 9 9 9 8 8 8 8 8 8 8 8 8 7 7 7 7 7 7 7 7 6 6 6 6 6 6 6 6 6 5 5 5 5
9 9 8 8 8 8 8 8 8 8 8 8 8 8 8 8 8 8 7 8 7 7 7 7 7 7 7 7 7 6 6 6 6 6 6 6 6 6 6 5 5 5 5
8 8 8 8 8 8 8 8 8 7 8 8 8 8 7 7 7 7 7 7 7 7 7 7 7 7 7 6 6 6 6 6 6 6 6 6 5 5 5 5 5 5 5
8 7 7 7 7 7 7 7 7 7 7 7 7 7 7 7 7 7 7 6 6 7 7 7 7 6 6 6 6 6 6 6 6 5 5 5 5 5 5 5 5 5 4
7 7 7 7 7 7 7 6 7 7 7 7 7 7 6 6 6 6 6 6 6 6 6 6 6 6 6 6 6 6 6 5 5 5 5 5 5 5 5 5 4 4 4
6 6 6 6 6 6 6 6 6 6 6 6 6 6 6 6 6 5 5 5 5 6 6 6 6 6 6 5 5 5 5 5 5 5 5 5 4 4 4 4 4 4 4
Wind_Speed
2 2 2 2 2 2 2 2 2 2 2 2 3 3 3 3 3 2 2 2 2 1 1 2 2 1 1 1 1 1 0 2 2 1 1 2 3 3 5 7 8 7 6
2 2 2 1 2 2 2 2 1 2 2 2 2 3 3 4 3 3 3 2 2 2 2 2 1 1 1 1 2 2 1 2 3 3 2 1 2 4 4 4 5 6 6
3 3 3 3 3 2 2 2 1 1 1 1 1 2 2 3 3 3 2 2 1 2 1 1 1 1 1 1 1 1 1 2 3 3 2 1 1 2 3 2 3 4 5
3 3 3 3 2 2 2 2 2 1 1 2 2 2 2 1 2 2 2 2 1 0 0 0 1 1 1 2 2 1 1 2 3 3 2 2 2 1 2 2 1 1 2
4 4 3 2 2 2 2 1 1 1 2 2 2 1 1 1 1 1 1 1 1 1 0 1 1 2 2 1 1 2 2 2 2 3 2 2 2 2 2 2 2 2 1
4 4 3 3 3 2 2 2 1 1 1 2 2 2 1 1 2 1 0 1 1 2 2 1 1 2 3 3 3 2 3 3 3 3 2 3 3 3 2 2 2 2 1
3 3 3 3 3 3 2 2 2 2 1 2 2 2 2 3 2 1 1 0 1 1 1 1 0 2 3 2 2 2 1 1 3 4 3 4 4 4 4 3 3 3 3
2 3 3 3 3 3 3 3 2 2 2 2 1 2 2 2 1 1 1 0 0 1 1 1 2 2 1 1 1 1 0 0 1 2 3 4 4 4 5 5 5 3 1
3 3 3 3 3 3 3 3 3 2 2 2 2 2 2 2 2 2 1 1 1 0 0 1 2 2 1 1 1 1 1 1 1 2 3 4 5 6 6 3 3 3 2
2 3 3 3 3 4 4 4 3 3 3 3 3 3 3 3 4 3 2 1 1 1 0 1 1 1 1 1 1 1 2 2 1 0 0 1 2 4 6 5 4 4 2
2 2 3 4 4 4 4 3 3 3 3 3 2 3 3 3 4 4 3 1 1 1 1 1 1 1 2 2 2 2 3 3 3 2 2 2 1 2 3 4 4 4 4
2 2 3 3 4 4 4 4 3 3 4 3 3 2 2 2 3 3 3 2 1 1 1 1 2 3 3 3 2 2 3 2 2 2 2 2 2 2 2 3 4 4 5
2 3 3 3 3 3 4 4 3 3 3 3 3 2 2 1 2 3 3 3 2 1 1 1 2 3 2 2 4 4 3 1 1 2 3 3 3 3 2 2 3 3 4
2 2 3 3 3 3 3 3 3 4 4 4 3 3 3 2 2 2 2 2 2 2 2 1 2 2 2 2 2 3 2 2 2 2 3 3 2 2 2 2 3 2 2
2 2 2 2 3 3 3 3 4 4 5 5 4 4 4 4 4 4 3 3 2 2 2 1 1 1 2 2 2 2 2 2 3 3 2 2 2 2 3 2 3 3 3
2 2 2 2 2 3 3 1 1 2 4 6 6 5 4 5 6 6 5 4 4 4 2 2 3 3 4 4 3 3 3 3 3 3 3 3 3 3 4 3 3 4 4
2 2 1 1 2 2 2 3 2 1 1 3 5 5 5 5 4 5 5 5 5 5 3 3 4 4 4 4 4 4 4 4 3 3 3 3 3 3 3 4 4 4 4
2 2 1 2 2 2 2 3 3 3 2 2 3 5 6 6 6 6 5 4 3 3 3 4 4 4 4 4 4 4 4 3 3 3 4 4 4 4 4 4 4 5 5
1 1 1 1 2 2 2 2 3 3 3 2 2 2 5 5 5 5 5 4 4 4 4 4 4 4 4 4 4 4 4 4 4 4 4 4 4 4 4 4 4 6 5
1 2 2 1 2 2 2 2 3 3 3 3 3 3 3 3 3 4 4 4 4 4 4 5 4 4 4 4 4 4 4 4 4 4 4 4 4 4 5 6 5 5 5
1 2 3 2 2 2 2 3 3 3 3 3 3 4 4 4 5 5 5 5 5 5 5 5 5 5 5 4 4 4 5 4 4 5 5 5 5 5 5 5 5 5 5
1 1 1 2 2 2 3 3 3 3 4 4 3 3 5 4 4 4 5 5 5 4 4 4 4 4 5 5 5 5 5 5 5 4 4 4 4 4 4 5 5 5 5
2 2 2 2 3 4 3 3 2 3 3 3 3 3 3 4 4 4 4 4 4 4 4 4 4 4 4 4 5 5 5 5 5 5 5 5 4 4 4 5 6 6 6
2 2 2 2 2 3 3 3 2 3 3 3 2 2 3 3 3 3 3 3 2 3 3 3 4 4 5 3 3 4 5 5 4 4 5 5 5 4 4 5 6 6 6
2 2 2 2 2 2 3 3 3 3 3 3 3 2 2 2 2 2 2 2 3 3 3 3 3 4 5 5 4 4 6 6 5 4 4 4 5 5 5 5 5 5 6
2 2 2 2 2 2 2 2 2 3 2 2 2 2 2 2 2 2 2 2 2 3 3 3 3 4 4 5 5 6 7 7 7 8 6 4 4 4 4 5 6 6 6
Wind_Direction
161 162 152 155 153 152 173 161 163 157 164 173 161 154 159 162 165 173 203 213 186 183 197 193 225 198 199 190 173 212 192 146 160 176 137 149 135 127 130 137 136 129 130
166 164 161 167 170 180 164 156 155 150 170 182 170 159 166 172 177 183 207 206 192 202 215 202 222 200 198 213 193 201 190 165 158 166 161 154 147 145 143 149 146 146 141
169 174 184 190 195 181 156 144 152 162 160 167 144 155 173 174 174 178 191 190 202 212 216 208 227 202 209 209 178 184 172 148 142 151 171 159 145 144 133 149 147 142 150
173 180 190 206 178 155 152 155 160 173 189 162 158 175 177 166 153 152 159 157 160 149 202 216 223 226 209 193 168 166 152 132 139 144 160 167 158 160 140 151 136 134 160
181 187 197 178 138 136 148 160 149 181 201 171 160 176 174 154 135 118 168 167 162 157 103 59 70 107 92 122 153 170 154 154 157 162 170 160 160 157 178 176 166 157 179
184 184 170 159 145 145 160 154 152 201 176 147 162 161 152 136 119 119 82 152 155 169 173 168 161 124 109 97 100 114 137 166 180 176 177 179 189 185 180 175 165 164 229
193 169 159 160 153 160 172 158 163 185 165 133 149 145 127 114 110 134 96 128 162 181 166 169 159 94 91 103 103 91 88 173 189 186 185 204 194 197 186 180 178 184 209
193 180 168 165 164 170 178 175 172 173 159 173 177 150 139 140 142 160 135 187 166 179 190 169 134 120 90 84 111 110 109 313 204 192 194 207 201 191 185 184 188 188 198
202 193 181 168 177 186 186 186 181 173 182 197 184 169 165 167 176 165 126 206 205 247 245 126 128 144 95 81 119 156 187 223 170 160 169 185 186 186 178 160 169 167 212
210 203 196 187 185 195 192 190 181 175 196 196 181 180 183 181 183 177 170 194 185 212 181 110 102 146 171 139 179 201 219 228 197 197 132 105 149 173 176 176 183 181 188
206 219 207 192 190 192 185 183 177 181 185 186 187 189 194 184 179 177 178 202 195 195 199 203 219 216 214 230 241 230 235 238 217 207 206 210 206 197 196 194 183 181 194
187 213 214 197 197 187 172 182 186 188 182 184 185 192 192 169 173 186 188 211 263 220 222 213 201 200 219 237 239 254 252 250 215 201 205 220 222 224 220 207 206 205 207
197 205 209 202 196 182 176 177 186 187 185 189 185 192 200 188 172 184 199 220 248 251 238 198 196 202 220 236 238 245 259 253 218 217 223 227 221 213 207 211 219 217 223
206 207 202 201 196 187 179 183 187 189 190 196 196 196 201 200 190 185 190 209 217 233 244 218 204 227 236 229 239 247 243 233 218 232 239 233 221 212 214 207 215 220 234
222 214 200 201 198 194 190 196 197 197 195 196 199 196 196 206 210 196 187 195 202 219 222 216 217 231 233 237 235 230 232 235 234 238 231 232 231 225 230 219 212 209 216
231 212 200 201 194 190 181 189 213 205 203 201 197 196 207 207 196 194 199 205 205 198 193 218 226 229 225 224 223 227 226 233 234 233 233 227 227 229 233 231 222 213 220
266 233 185 196 195 194 192 186 199 299 307 229 207 207 207 201 194 197 199 195 191 182 196 221 232 231 228 222 221 221 221 223 223 226 232 237 232 230 232 234 229 225 231
282 271 231 202 202 207 208 204 197 199 222 272 246 222 211 207 210 208 196 173 191 206 219 224 232 237 237 231 227 227 225 221 223 226 229 234 230 230 236 237 233 233 234
273 271 262 221 204 213 214 217 217 213 211 218 223 224 213 207 211 209 188 201 211 217 222 228 229 231 236 236 234 230 225 223 226 228 228 230 229 227 233 233 234 243 244
241 248 258 247 233 226 221 225 233 227 219 216 217 219 195 184 202 207 209 218 222 225 224 227 227 228 230 235 233 229 233 233 230 231 233 232 233 230 232 234 235 237 241
258 253 260 268 252 241 230 227 233 235 235 230 228 223 207 203 208 212 214 221 226 228 229 227 225 225 226 228 230 229 231 238 237 233 233 234 234 237 233 234 236 236 241
266 257 260 263 268 262 257 240 236 237 238 239 235 223 211 215 215 217 219 223 227 231 233 230 228 225 223 222 221 223 228 235 241 242 241 243 242 241 239 238 241 241 243
259 253 265 265 263 263 270 270 260 257 253 243 233 222 215 223 227 228 229 226 226 230 229 225 231 232 223 219 217 214 225 232 235 234 237 242 242 241 240 243 246 249 245
267 254 252 256 255 254 254 260 264 270 270 262 247 234 231 233 236 236 236 236 235 237 230 228 231 237 235 232 229 226 231 235 237 233 229 239 244 246 244 248 248 246 245
267 267 263 259 257 265 270 270 268 268 265 260 255 248 245 243 247 248 245 247 246 245 244 242 239 244 243 242 241 240 241 236 237 237 231 226 241 250 252 251 253 251 246
294 289 283 274 264 262 268 267 264 271 279 276 268 262 256 254 262 266 265 264 258 255 252 250 247 250 250 249 247 245 242 242 243 240 231 221 231 246 253 256 254 250 247
Height
1522 1523 1524 1525 1526 1527 1528 1528 1529 1529 1530 1530 1531 1532 1532 1533 1534 1535 1536 1537 1538 1539 1539 1540 1540 1541 1541 1542 1542 1542 1543 1543 1542 1543 1543 1543 1543 1543 1543 1543 1542 1542 1542
1520 1521 1522 1523 1524 1525 1526 1526 1527 1527 1528 1529 1529 1530 1530 1531 1532 1534 1535 1536 1536 1537 1537 1538 1538 1539 1539 1539 1540 1540 1540 1540 1541 1540 1541 1541 1541 1542 1542 1541 1541 1541 1541
1518 1519 1520 1521 1522 1523 1523 1524 1525 1525 1526 1526 1527 1528 1529 1529 1530 1531 1532 1533 1534 1535 1535 1535 1536 1536 1537 1537 1537 1538 1538 1538 1538 1538 1539 1539 1540 1540 1540 1540 1540 1540 1540
1516 1517 1518 1519 1520 1520 1521 1522 1523 1523 1524 1524 1525 1526 1527 1527 1528 1529 1530 1531 1532 1532 1533 1533 1534 1534 1534 1534 1535 1535 1536 1536 1536 1536 1537 1537 1538 1538 1538 1538 1538 1538 1539
1513 1514 1515 1516 1517 1518 1519 1520 1520 1521 1522 1522 1522 1523 1524 1525 1526 1527 1528 1529 1529 1530 1531 1531 1531 1531 1532 1532 1532 1533 1533 1533 1534 1534 1535 1535 1535 1536 1536 1536 1536 1537 1537
1511 1512 1513 1514 1515 1516 1517 1517 1518 1519 1520 1520 1520 1521 1522 1523 1523 1525 1526 1526 1527 1527 1528 1528 1528 1529 1529 1529 1530 1530 1531 1531 1531 1532 1532 1532 1532 1533 1534 1534 1534 1534 1534
1508 1509 1510 1511 1512 1513 1514 1515 1516 1517 1517 1518 1519 1519 1520 1521 1522 1522 1523 1524 1524 1525 1525 1525 1526 1526 1526 1527 1527 1528 1528 1529 1529 1530 1529 1529 1530 1530 1531 1531 1531 1531 1532
1505 1506 1507 1508 1509 1511 1512 1512 1513 1514 1515 1516 1517 1517 1518 1519 1520 1521 1521 1522 1522 1523 1523 1523 1523 1524 1524 1524 1524 1525 1525 1526 1526 1526 1526 1527 1527 1528 1528 1529 1529 1529 1530
1502 1503 1505 1506 1507 1508 1509 1510 1511 1512 1513 1514 1514 1515 1516 1517 1518 1518 1519 1519 1520 1520 1521 1521 1521 1521 1522 1522 1522 1522 1522 1522 1523 1523 1523 1524 1524 1524 1525 1525 1526 1526 1526
1499 1500 1502 1503 1504 1505 1506 1507 1508 1509 1510 1511 1512 1513 1514 1514 1515 1516 1517 1517 1517 1517 1517 1518 1518 1519 1519 1519 1519 1519 1519 1519 1519 1519 1520 1520 1521 1521 1522 1522 1523 1523 1523
1496 1497 1498 1499 1500 1502 1503 1504 1505 1506 1507 1508 1509 1510 1511 1512 1512 1513 1514 1514 1514 1514 1514 1514 1515 1515 1516 1516 1516 1516 1516 1516 1516 1516 1516 1517 1517 1518 1518 1519 1519 1520 1520
1493 1494 1495 1496 1497 1499 1500 1501 1502 1503 1504 1505 1506 1507 1508 1509 1510 1510 1511 1512 1512 1512 1511 1512 1512 1512 1512 1512 1512 1512 1513 1513 1513 1513 1513 1513 1513 1514 1514 1515 1516 1516 1517
1490 1491 1492 1493 1494 1495 1496 1497 1498 1500 1501 1501 1502 1503 1504 1505 1506 1507 1507 1508 1508 1509 1508 1509 1509 1509 1509 1509 1509 1509 1509 1509 1509 1509 1509 1510 1510 1510 1511 1512 1512 1512 1513
1488 1488 1489 1490 1491 1492 1493 1494 1495 1496 1497 1498 1499 1500 1501 1502 1502 1503 1503 1504 1504 1505 1505 1505 1505 1505 1505 1505 1505 1505 1505 1506 1506 1506 1506 1507 1507 1507 1507 1507 1507 1508 1508
1486 1486 1487 1487 1488 1489 1490 1491 1491 1492 1493 1494 1495 1496 1497 1497 1498 1499 1500 1500 1500 1501 1501 1501 1501 1501 1501 1501 1501 1501 1501 1502 1502 1502 1503 1503 1503 1503 1503 1503 1503 1503 1503
1484 1484 1484 1484 1485 1486 1486 1487 1488 1490 1490 1491 1492 1493 1493 1494 1495 1496 1496 1497 1497 1497 1497 1496 1496 1496 1496 1497 1497 1497 1497 1497 1498 1498 1498 1498 1498 1498 1499 1499 1499 1499 1498
1482 1482 1482 1482 1482 1482 1483 1484 1484 1486 1487 1488 1488 1489 1490 1490 1491 1492 1492 1492 1492 1492 1492 1492 1492 1492 1492 1492 1493 1493 1493 1493 1493 1494 1494 1494 1494 1494 1494 1494 1494 1494 1494
1479 1479 1479 1479 1479 1480 1480 1481 1481 1481 1482 1482 1484 1485 1486 1486 1487 1487 1487 1488 1487 1487 1487 1488 1488 1488 1488 1488 1488 1488 1488 1488 1488 1489 1489 1489 1489 1489 1489 1489 1489 1489 1489
1476 1476 1476 1476 1476 1476 1477 1477 1478 1478 1478 1478 1479 1480 1481 1481 1481 1482 1482 1482 1482 1482 1482 1483 1483 1483 1483 1483 1484 1484 1484 1483 1483 1484 1484 1484 1484 1484 1484 1484 1484 1484 1484
1473 1472 1472 1472 1472 1473 1473 1473 1474 1474 1474 1474 1474 1475 1475 1475 1475 1475 1476 1476 1477 1477 1477 1478 1478 1478 1478 1478 1478 1478 1478 1478 1478 1478 1478 1479 1479 1479 1478 1478 1478 1478 1478
1469 1469 1469 1469 1469 1469 1469 1469 1469 1470 1470 1470 1470 1470 1471 1470 1470 1470 1471 1471 1472 1472 1472 1472 1472 1472 1473 1473 1473 1473 1473 1473 1473 1473 1473 1473 1473 1473 1473 1473 1473 1473 1472
1466 1465 1465 1466 1466 1466 1466 1466 1466 1466 1466 1466 1465 1466 1466 1466 1465 1465 1465 1466 1466 1466 1467 1467 1467 1467 1468 1468 1468 1467 1467 1467 1467 1467 1468 1468 1468 1468 1467 1467 1467 1467 1467
1462 1462 1462 1462 1462 1462 1462 1462 1462 1461 1461 1461 1461 1461 1461 1460 1460 1460 1460 1460 1461 1461 1461 1462 1462 1462 1462 1462 1462 1462 1462 1461 1462 1462 1462 1462 1462 1462 1461 1461 1461 1461 1460
1459 1458 1458 1458 1458 1458 1458 1457 1457 1457 1457 1456 1456 1456 1455 1456 1455 1455 1456 1456 1456 1456 1456 1456 1456 1456 1457 1457 1457 1457 1456 1456 1456 1456 1456 1456 1456 1456 1455 1455 1455 1454 1454
1455 1455 1455 1454 1454 1454 1454 1453 1453 1453 1452 1452 1451 1451 1451 1451 1451 1451 1451 1451 1451 1451 1451 1451 1451 1451 1451 1451 1451 1450 1450 1450 1450 1450 1450 1449 1449 1449 1449 1449 1448 1448 1448
1452 1452 1451 1451 1450 1450 1450 1449 1449 1449 1448 1448 1447 1446 1446 1446 1446 1446 1446 1446 1446 1446 1445 1445 1445 1445 1445 1445 1444 1444 1444 1444 1444 1443 1443 1443 1443 1442 1442 1442 1442 1441 1441